This is the latest recevied weather packets stored in our database for station/object K1LVA. If no packets are shown the sender has not sent any weather packets the latest 10 day(s).
| Time | Temp. | Humidity | Pressure | Rain* | Wind** | Luminosity | Snow |
|---|---|---|---|---|---|---|---|
| 1778128250 | 22.22° C | 82% | 1013.4 hPa | 0 mm | - | 0 W/m² | - |
| 1778127945 | 22.22° C | 81% | 1013.3 hPa | 0 mm | - | 0 W/m² | - |
| 1778127641 | 22.22° C | 81% | 1013.2 hPa | 0 mm | - | 0 W/m² | - |
| 1778127338 | 22.22° C | 80% | 1013.4 hPa | 0 mm | - | 0 W/m² | - |
| 1778127035 | 22.78° C | 79% | 1013.9 hPa | 0 mm | - | 0 W/m² | - |
| 1778126732 | 22.78° C | 77% | 1013.4 hPa | 0 mm | - | 0 W/m² | - |
| 1778126427 | 22.78° C | 76% | 1013.4 hPa | 0 mm | - | 0 W/m² | - |
| 1778126124 | 22.78° C | 76% | 1013.7 hPa | 0 mm | - | 0 W/m² | - |
| 1778125821 | 23.33° C | 75% | 1013.6 hPa | 0 mm | - | 0 W/m² | - |
| 1778125517 | 23.33° C | 74% | 1013.8 hPa | 0 mm | - | 0 W/m² | - |
| 1778125215 | 23.89° C | 72% | 1013.9 hPa | 0 mm | - | 0 W/m² | - |
| 1778124913 | 23.89° C | 69% | 1014 hPa | 0 mm | - | 0 W/m² | - |
| 1778124610 | 24.44° C | 67% | 1014.1 hPa | 0 mm | - | 0 W/m² | - |
| 1778124307 | 24.44° C | 65% | 1013.9 hPa | 0 mm | - | 0 W/m² | - |
| 1778124003 | 24.44° C | 64% | 1013.8 hPa | 0 mm | - | 0 W/m² | - |
| 1778123699 | 23.89° C | 66% | 1013.5 hPa | 0 mm | - | 0 W/m² | - |
| 1778123396 | 24.44° C | 65% | 1013.3 hPa | 0 mm | - | 0 W/m² | - |
| 1778123093 | 24.44° C | 64% | 1013.3 hPa | 0 mm | - | 0 W/m² | - |
| 1778122790 | 24.44° C | 63% | 1013.2 hPa | 0 mm | - | 0 W/m² | - |
| 1778122488 | 25° C | 64% | 1012.9 hPa | 0 mm | - | 0 W/m² | - |
| 1778122186 | 25° C | 64% | 1012.8 hPa | 0 mm | - | 0 W/m² | - |
| 1778121883 | 24.44° C | 64% | 1012.7 hPa | 0 mm | - | 0 W/m² | - |
| 1778121578 | 24.44° C | 66% | 1012.9 hPa | 0 mm | - | 0 W/m² | - |
| 1778121275 | 24.44° C | 66% | 1012.6 hPa | 0 mm | - | 0 W/m² | - |
| 1778120973 | 24.44° C | 66% | 1012.2 hPa | 0 mm | - | 0 W/m² | - |
* Rain latest hour (hover to see other rain measurements)
** Current wind speed in m/s (hover to see current wind gust speed)